Tracking 27188 objects as of 1-Apr-2023
HD Live streaming from Space Station
objects crossing your sky now

STARLINK-5074

Track STARLINK-5074 now!
10-day predictions
STARLINK-5074 is classified as:


NORAD ID: 55438
Int'l Code: 2023-014AZ
Perigee: 364.2 km
Apogee: 368.3 km
Inclination: 70.0 °
Period: 91.7 minutes
Semi major axis: 6737 km
RCS: Unknown
Launch date: January 31, 2023
Source: United States (US)
Launch site: AIR FORCE WESTERN TEST RANGE (AFWTR)
Your satellite tracking list
Your tracking list is empty




NASA's NSSDC Master Catalog

Two Line Element Set (TLE):
1 55438U 23014AZ  23090.80920331  .00000516  00000-0  60628-5 0  9994
2 55438  70.0005 283.4680 0003040 266.5274  93.5574 15.69922353  9488
Source of the keplerian elements: AFSPC